Time,TemperatureF,DewpointF,PressureIn,WindDirection,WindDirectionDegrees,WindSpeedMPH,WindSpeedGustMPH,Humidity,HourlyPrecipIn,Conditions,Clouds,dailyrainin,SoftwareType,DateUTC
2013-03-29 00:41:00,39.0,30.8,30.09,West,270,1.7,-999.0,72,-99.99,,,0.00,Acu-Link.com,2013-03-29 04:41:00,
2013-03-29 00:57:00,39.4,31.1,30.09,West,270,2.7,-999.0,72,-99.99,,,0.00,Acu-Link.com,2013-03-29 04:57:00,
2013-03-29 01:12:00,39.6,31.7,30.09,West,270,0.0,-999.0,73,-99.99,,,0.00,Acu-Link.com,2013-03-29 05:12:00,
2013-03-29 01:27:00,39.4,31.5,30.09,North,0,0.0,-999.0,73,-99.99,,,0.00,Acu-Link.com,2013-03-29 05:27:00,
2013-03-29 01:57:00,39.6,32.3,30.10,WSW,247,1.7,-999.0,75,-99.99,,,0.00,Acu-Link.com,2013-03-29 05:57:00,
2013-03-29 02:12:00,39.6,32.3,30.10,NNW,337,2.7,-999.0,75,-99.99,,,0.00,Acu-Link.com,2013-03-29 06:12:00,
2013-03-29 02:27:00,39.6,32.7,30.11,WSW,247,2.2,-999.0,76,-99.99,,,0.00,Acu-Link.com,2013-03-29 06:27:00,
2013-03-29 02:42:00,39.6,32.7,30.10,WSW,247,2.7,-999.0,76,-99.99,,,0.00,Acu-Link.com,2013-03-29 06:42:00,
2013-03-29 02:57:00,39.4,32.8,30.10,West,270,2.2,-999.0,77,-99.99,,,0.00,Acu-Link.com,2013-03-29 06:57:00,
2013-03-29 03:13:00,39.0,32.7,30.11,SW,225,1.7,-999.0,78,-99.99,,,0.00,Acu-Link.com,2013-03-29 07:13:00,
2013-03-29 03:28:00,39.2,33.2,30.11,West,270,1.1,-999.0,79,-99.99,,,0.00,Acu-Link.com,2013-03-29 07:28:00,
2013-03-29 03:43:00,39.2,33.2,30.11,WNW,292,2.2,-999.0,79,-99.99,,,0.00,Acu-Link.com,2013-03-29 07:43:00,
2013-03-29 03:58:00,39.0,33.4,30.11,West,270,2.2,-999.0,80,-99.99,,,0.00,Acu-Link.com,2013-03-29 07:58:00,
2013-03-29 04:13:00,39.0,33.4,30.10,WSW,247,1.7,-999.0,80,-99.99,,,0.00,Acu-Link.com,2013-03-29 08:13:00,
2013-03-29 04:28:00,38.8,33.2,30.10,WNW,292,1.7,-999.0,80,-99.99,,,0.00,Acu-Link.com,2013-03-29 08:28:00,
2013-03-29 04:43:00,38.5,33.2,30.10,West,270,2.7,-999.0,81,-99.99,,,0.00,Acu-Link.com,2013-03-29 08:43:00,
2013-03-29 04:58:00,38.7,33.4,30.10,West,270,4.2,-999.0,81,-99.99,,,0.00,Acu-Link.com,2013-03-29 08:58:00,
2013-03-29 05:14:00,38.7,33.7,30.10,WSW,247,1.7,-999.0,82,-99.99,,,0.00,Acu-Link.com,2013-03-29 09:14:00,
2013-03-29 05:29:00,38.3,33.3,30.09,West,270,1.7,-999.0,82,-99.99,,,0.00,Acu-Link.com,2013-03-29 09:29:00,
2013-03-29 05:44:00,37.9,33.2,30.09,West,270,2.2,-999.0,83,-99.99,,,0.00,Acu-Link.com,2013-03-29 09:44:00,
2013-03-29 05:59:00,37.8,33.4,30.09,West,270,3.2,-999.0,84,-99.99,,,0.00,Acu-Link.com,2013-03-29 09:59:00,
2013-03-29 06:14:00,37.6,33.2,30.09,West,270,2.2,-999.0,84,-99.99,,,0.00,Acu-Link.com,2013-03-29 10:14:00,
2013-03-29 06:29:00,37.6,33.2,30.10,SW,225,2.2,-999.0,84,-99.99,,,0.00,Acu-Link.com,2013-03-29 10:29:00,
2013-03-29 06:44:00,37.2,33.1,30.09,SW,225,1.7,-999.0,85,-99.99,,,0.00,Acu-Link.com,2013-03-29 10:44:00,
2013-03-29 06:59:00,37.0,33.2,30.09,SW,225,2.2,-999.0,86,-99.99,,,0.00,Acu-Link.com,2013-03-29 10:59:00,
2013-03-29 07:15:00,37.0,33.2,30.09,West,270,2.7,-999.0,86,-99.99,,,0.00,Acu-Link.com,2013-03-29 11:15:00,
2013-03-29 07:30:00,37.4,33.6,30.10,West,270,2.2,-999.0,86,-99.99,,,0.00,Acu-Link.com,2013-03-29 11:30:00,
2013-03-29 07:45:00,37.8,34.3,30.10,WSW,247,4.2,-999.0,87,-99.99,,,0.00,Acu-Link.com,2013-03-29 11:45:00,
2013-03-29 08:00:00,38.3,34.5,30.10,SW,225,2.7,-999.0,86,-99.99,,,0.00,Acu-Link.com,2013-03-29 12:00:00,
2013-03-29 08:15:00,38.8,34.7,30.10,South,180,1.7,-999.0,85,-99.99,,,0.00,Acu-Link.com,2013-03-29 12:15:00,
2013-03-29 08:30:00,39.2,34.8,30.10,West,270,2.7,-999.0,84,-99.99,,,0.00,Acu-Link.com,2013-03-29 12:30:00,
2013-03-29 08:45:00,39.6,35.2,30.10,WSW,247,1.7,-999.0,84,-99.99,,,0.00,Acu-Link.com,2013-03-29 12:45:00,
2013-03-29 09:00:00,40.1,35.1,30.10,WSW,247,1.7,-999.0,82,-99.99,,,0.00,Acu-Link.com,2013-03-29 13:00:00,
2013-03-29 09:46:00,41.2,35.5,30.11,ESE,112,2.2,-999.0,80,-99.99,,,0.00,Acu-Link.com,2013-03-29 13:46:00,
2013-03-29 10:01:00,42.1,36.1,30.10,WSW,247,4.2,-999.0,79,-99.99,,,0.00,Acu-Link.com,2013-03-29 14:01:00,
2013-03-29 10:16:00,43.3,36.6,30.10,South,180,3.7,-999.0,77,-99.99,,,0.00,Acu-Link.com,2013-03-29 14:16:00,
2013-03-29 10:31:00,42.6,36.2,30.10,South,180,2.7,-999.0,78,-99.99,,,0.00,Acu-Link.com,2013-03-29 14:31:00,
2013-03-29 10:46:00,43.2,36.2,30.10,WSW,247,1.1,-999.0,76,-99.99,,,0.00,Acu-Link.com,2013-03-29 14:46:00,
2013-03-29 11:17:00,46.0,37.8,30.09,South,180,3.2,-999.0,73,-99.99,,,0.00,Acu-Link.com,2013-03-29 15:17:00,
2013-03-29 11:32:00,48.4,39.1,30.09,NNE,22,3.7,-999.0,70,-99.99,,,0.00,Acu-Link.com,2013-03-29 15:32:00,
2013-03-29 11:47:00,47.8,38.5,30.08,SSW,202,2.7,-999.0,70,-99.99,,,0.00,Acu-Link.com,2013-03-29 15:47:00,
2013-03-29 12:17:00,51.1,39.7,30.06,NE,45,4.2,-999.0,65,-99.99,,,0.00,Acu-Link.com,2013-03-29 16:17:00,
2013-03-29 12:32:00,50.5,37.6,30.06,West,270,3.2,-999.0,61,-99.99,,,0.00,Acu-Link.com,2013-03-29 16:32:00,
2013-03-29 12:47:00,50.4,37.0,30.04,NNW,337,3.2,-999.0,60,-99.99,,,0.00,Acu-Link.com,2013-03-29 16:47:00,
2013-03-29 13:02:00,50.5,35.8,30.05,WSW,247,2.7,-999.0,57,-99.99,,,0.00,Acu-Link.com,2013-03-29 17:02:00,
2013-03-29 13:18:00,51.1,34.6,30.03,NW,315,2.7,-999.0,53,-99.99,,,0.00,Acu-Link.com,2013-03-29 17:18:00,
2013-03-29 13:33:00,51.8,34.3,30.03,West,270,4.7,-999.0,51,-99.99,,,0.00,Acu-Link.com,2013-03-29 17:33:00,
2013-03-29 13:48:00,51.4,33.4,30.03,NNW,337,4.2,-999.0,50,-99.99,,,0.00,Acu-Link.com,2013-03-29 17:48:00,
2013-03-29 14:03:00,51.4,32.9,30.02,ESE,112,7.8,-999.0,49,-99.99,,,0.00,Acu-Link.com,2013-03-29 18:03:00,
2013-03-29 14:18:00,51.4,32.4,30.02,SW,225,4.7,-999.0,48,-99.99,,,0.00,Acu-Link.com,2013-03-29 18:18:00,
2013-03-29 14:33:00,51.8,32.2,30.01,NE,45,2.2,-999.0,47,-99.99,,,0.00,Acu-Link.com,2013-03-29 18:33:00,
2013-03-29 14:48:00,52.2,32.6,30.01,West,270,4.7,-999.0,47,-99.99,,,0.00,Acu-Link.com,2013-03-29 18:48:00,
2013-03-29 15:03:00,51.4,32.9,30.01,SW,225,6.3,-999.0,49,-99.99,,,0.00,Acu-Link.com,2013-03-29 19:03:00,
2013-03-29 15:34:00,50.5,34.0,30.01,West,270,2.2,-999.0,53,-99.99,,,0.00,Acu-Link.com,2013-03-29 19:34:00,
2013-03-29 15:49:00,51.4,34.4,30.01,West,270,2.7,-999.0,52,-99.99,,,0.00,Acu-Link.com,2013-03-29 19:49:00,
2013-03-29 16:04:00,49.6,35.4,30.00,West,270,4.2,-999.0,58,-99.99,,,0.00,Acu-Link.com,2013-03-29 20:04:00,
2013-03-29 16:19:00,50.5,35.4,30.01,West,270,3.2,-999.0,56,-99.99,,,0.00,Acu-Link.com,2013-03-29 20:19:00,
2013-03-29 16:34:00,51.1,35.0,30.01,SW,225,3.7,-999.0,54,-99.99,,,0.00,Acu-Link.com,2013-03-29 20:34:00,
2013-03-29 16:49:00,50.0,34.9,30.01,West,270,3.7,-999.0,56,-99.99,,,0.00,Acu-Link.com,2013-03-29 20:49:00,
2013-03-29 17:04:00,50.2,35.6,30.01,SSW,202,3.2,-999.0,57,-99.99,,,0.00,Acu-Link.com,2013-03-29 21:04:00,
2013-03-29 17:19:00,50.7,35.1,30.00,West,270,2.7,-999.0,55,-99.99,,,0.00,Acu-Link.com,2013-03-29 21:19:00,
2013-03-29 17:34:00,50.5,34.5,30.00,West,270,3.2,-999.0,54,-99.99,,,0.00,Acu-Link.com,2013-03-29 21:34:00,
2013-03-29 17:50:00,49.6,34.1,30.00,West,270,5.8,-999.0,55,-99.99,,,0.00,Acu-Link.com,2013-03-29 21:50:00,
2013-03-29 18:05:00,48.9,33.9,30.01,West,270,4.7,-999.0,56,-99.99,,,0.00,Acu-Link.com,2013-03-29 22:05:00,
2013-03-29 18:20:00,49.1,34.5,30.01,West,270,2.2,-999.0,57,-99.99,,,0.00,Acu-Link.com,2013-03-29 22:20:00,
2013-03-29 18:35:00,48.4,35.2,30.01,WSW,247,2.2,-999.0,60,-99.99,,,0.00,Acu-Link.com,2013-03-29 22:35:00,
2013-03-29 18:50:00,47.7,35.3,30.02,ESE,112,1.7,-999.0,62,-99.99,,,0.00,Acu-Link.com,2013-03-29 22:50:00,
2013-03-29 19:05:00,47.1,35.2,30.02,South,180,2.2,-999.0,63,-99.99,,,0.00,Acu-Link.com,2013-03-29 23:05:00,
2013-03-29 19:20:00,46.4,34.9,30.02,WNW,292,1.7,-999.0,64,-99.99,,,0.00,Acu-Link.com,2013-03-29 23:20:00,
2013-03-29 19:35:00,45.9,34.8,30.02,WSW,247,2.2,-999.0,65,-99.99,,,0.00,Acu-Link.com,2013-03-29 23:35:00,
2013-03-29 19:50:00,45.1,34.8,30.03,SW,225,1.7,-999.0,67,-99.99,,,0.00,Acu-Link.com,2013-03-29 23:50:00,
2013-03-29 20:06:00,44.6,34.7,30.03,SW,225,2.2,-999.0,68,-99.99,,,0.00,Acu-Link.com,2013-03-30 00:06:00,
2013-03-29 20:21:00,43.5,34.0,30.03,West,270,0.0,-999.0,69,-99.99,,,0.00,Acu-Link.com,2013-03-30 00:21:00,
2013-03-29 22:06:00,33.6,29.9,30.05,WSW,247,0.0,-999.0,86,-99.99,,,0.00,Acu-Link.com,2013-03-30 02:06:00,
2013-03-29 22:21:00,32.7,29.3,30.05,North,0,0.0,-999.0,87,-99.99,,,0.00,Acu-Link.com,2013-03-30 02:21:00,
2013-03-29 22:52:00,30.9,28.3,30.05,South,180,0.0,-999.0,90,-99.99,,,0.00,Acu-Link.com,2013-03-30 02:52:00,
2013-03-29 23:07:00,30.4,28.9,30.06,NE,45,0.0,-999.0,94,-99.99,,,0.00,Acu-Link.com,2013-03-30 03:07:00,
2013-03-29 23:22:00,29.5,28.0,30.06,NE,45,0.0,-999.0,94,-99.99,,,0.00,Acu-Link.com,2013-03-30 03:22:00,
2013-03-29 23:37:00,28.6,27.1,30.06,North,0,0.0,-999.0,94,-99.99,,,0.00,Acu-Link.com,2013-03-30 03:37:00,
2013-03-29 23:52:00,27.9,26.7,30.07,West,270,0.0,-999.0,95,-99.99,,,0.00,Acu-Link.com,2013-03-30 03:52:00,